Showing default

COSMOS 1693, 16141

Orbit data source: Space-Track

COSMOS 1693, 16141 is a payload satellite owned by GUKOS (CIS) in LEO that was launched on Wed, 09 Oct 1985 UTC via a TSIKLON-3 launch vehicle from the Plesetsk Missile And Space Complex (PKMTR). Payload-class satellites include a variety of spacecraft equipped with specific instruments for various scientific and technological missions. These include communications satellites like Starlink; space stations such as the ISS; scientific satellites like the Hubble; Earth observation satellites from companies like Planet Labs, Umbra, and HawkEye 360; GPS; miniature CubeSats for education and research; and military/defense satellites.

Loading next visibility...
Identifier
16141, 1985-094D
Orbit
LEO
Country
Flag of CISCIS
Related business
Manufacturer
NPO PM
Mission
Spacecraft
Bus & Motor
STRELA-3, Unknown motor
Mass
225 kg wet, 225 kg dry
Launch date (UTC)
1985-10-09 (41 years ago)
Launch vehicle
TSIKLON-3
Launch site
Plesetsk Missile And Space Complex (PKMTR)
Object type
Payload
Rocket body
Debris
Shape & HBR
Unknown
Radar Cross Section
Medium (>0.1 m² and <1 m²)

Expand to show TLE details & history
Last TLE update: 2 days ago

TLE from 2 days ago
0 COSMOS 1693
1 16141U 85094D   26171.45336008  .00000016  00000-0  26874-4 0  9993
2 16141  82.6101 250.3474 0015354  31.8980 340.2635 12.64358931877956
Epoch: 2026-06-20T10:52Z
TLE epoch observation values (Epoch: 2026-06-20T10:52:50.310Z)
Latitude
11.95971°
Longitude
-179.96351°
Altitude
1,395.74 km
Speed
7.168 km/s
True Right ascension
16h 47m 39s
True Declination
11° 53' 45"
Sunlit
Object was in full shadow at epoch
Visualization orbit readout
Latitude
Unknown
Longitude
Unknown
Altitude
Unknown
Speed
Unknown
Apparent Right ascension
Unknown
Apparent Declination
Unknown
Sunlit
N/A
Visualization observer readout
Local Sidereal Time
04:00:00
Azimuth
Unknown
Elevation
Unknown
Doppler factor
Unknown
Orbital elements
Apogee altitude
1,414.267 km
Perigee altitude
1,390.375 km
Semi-major axis
7,780.458 km
Eccentricity
0.00154
Inclination
82.6101°
RAAN
250.3474°
Arg. of periapsis
31.898°
True anomaly
340.20398°
Mean anomaly
340.2635°
Eccentric anomaly
340.23375°
Mean motion
3.16254 °/min
Orbital period
113.83 mins
BSTAR
0.000026874
Loading maneuver chart data...
Computing Atmospheric mass density...
Loading historical data...
Loading historical data...
Loading historical data...
Loading historical data...
Loading historical data...
Loading historical data...
Loading historical data...

Documentation

Showing up to 5 results
|